Location: Malvern Link
(52.1333°N, 2.3000°W)
Time: 11:05:38
(UTC+00:00)

Envisat - Pass Details

Date: 22 January 2022
Orbit: 764 x 765 km, 98.2° (Epoch: 22 May)

Event Time Altitude Azimuth Distance (km) Brightness Sun altitude
Rises 06:43:26 0° 7° (N) 3,244 6.1 -12.0°
Reaches altitude 10° 06:46:09 10° 353° (N) 2,314 5.2 -11.6°
Maximum altitude 06:50:03 23° 303° (WNW) 1,600 4.1 -11.1°
Drops below altitude 10° 06:53:56 10° 252° (WSW) 2,303 5.0 -10.5°
Sets 06:56:39 0° 238° (WSW) 3,225 5.9 -10.1°
